Ibiza, Spain

11:01 PM CET en Noviembre 16, 2018 (GMT +0100)
Ibiza

Tiempo Historia de LEIB - Noviembre, 2018

Change the Weather History Date:

Viernes, Noviembre 9, 2018

  Actual Average Record
Temperature  
Temperatura media 57 ° F -  
Temperatura máxima 63 ° F 62 ° F 73 ° F (1997)
Temperatura mínima 51 ° F 52 ° F 42 ° F (2000)
Degree Days  
Grados día de calefacción 8    
Growing Degree Days 7 (Base 50)    
Moisture  
Punto de rocío 49 ° F    
Average Humidity 65    
Maximum Humidity 88    
Minimum Humidity 39    
Precipitación  
Precipitación 0.51 pul 0.07 pul - ()
Presión al nivel del mar  
Presión al nivel del mar 29.97 pul    
Viento  
Velocidad del viento 11 mph ()    
Velocidad máxima del viento 21 mph    
Max Gust Speed 31 mph    
Visibilidad 6.8 Millas    
Eventos Lluvia , Tormenta    
Averages and records for this station are not official NWS values.
T = Trace of Precipitation, MM = Missing Value Source: Averaged Metar Reports

Daily Weather History Graph

Daily Weather History Graph

Search for Another Location

Airport or City:

Astronomía

Nov. 09, 2018 Salida Puesta
Hora real 7:30 AM CET 5:45 PM CET
Crepúsculo civil 7:02 AM CET 6:13 PM CET
Crepúsculo náutico 6:30 AM CET 6:45 PM CET
Crepúsculo astronómico 5:58 AM CET 7:17 PM CET
Luna 9:04 AM CET (11/9) 7:21 PM CET (11/9)
Horas de luz 11h 11m
Horas de luz
10h 15m
Creciente, 4% of the Moon is Illuminated
Nov 9
Creciente
Nov 15
Cuarto creciente
Nov 23
Luna llena
Nov 30
Cuarto menguante
Dic 7
Nueva

Hourly Weather History & Observations

Hora (CET) Temp. Punto de rocío Humedad Presión Visibilidad Wind Dir Velocidad del viento Velocidad de ráfagas Precip Eventos Condiciones
12:00 AM 60.8 ° F 57.2 ° F 88% 29.98 pul 6.2 mi SSO 6.9 mph - N/A   Nubes dispersas
12:30 AM 62.6 ° F 55.4 ° F 77% 29.95 pul - Sur 8.1 mph - N/A   Muy nublado
1:00 AM 62 ° F 52 ° F 62% 29.96 pul - Sur 8.1 mph - -  
1:00 AM 62.6 ° F 55.4 ° F 77% 29.95 pul - Sur 6.9 mph - N/A   Parcialmente nublado
1:30 AM 62.6 ° F 57.2 ° F 82% 29.92 pul - Sur 10.4 mph - N/A   Parcialmente nublado
2:00 AM 63 ° F 54 ° F 64% 29.94 pul - Sur 13.8 mph - -  
2:00 AM 62.6 ° F 57.2 ° F 82% 29.92 pul 6.2 mi Sur 12.7 mph - N/A   Muy nublado
2:30 AM 64.4 ° F 57.2 ° F 77% 29.92 pul 6.2 mi SSO 17.3 mph - N/A   Muy nublado
3:00 AM 64 ° F 55 ° F 64% 29.92 pul - SSO 18.4 mph - -  
3:00 AM 64.4 ° F 57.2 ° F 77% 29.92 pul 6.2 mi SSO 18.4 mph - N/A   Muy nublado
3:28 AM 62.6 ° F 59.0 ° F 88% 29.92 pul 6.2 mi Oeste 10.4 mph - N/A Lluvia Lluvia débil
3:30 AM 62.6 ° F 59.0 ° F 88% 29.92 pul 6.2 mi Oeste 10.4 mph - N/A Lluvia Lluvia
3:41 AM 62.6 ° F 57.2 ° F 82% 29.92 pul 5.0 mi Oeste 13.8 mph - N/A Lluvia Lluvias fuertes
3:51 AM 60.8 ° F 53.6 ° F 77% 29.92 pul 6.2 mi Oeste 15.0 mph - N/A Lluvia , Tormenta Lluvia débil
4:00 AM 60.8 ° F 55.4 ° F 82% 29.92 pul - Oeste 12.7 mph - N/A Lluvia , Tormenta Lluvia débil
4:30 AM 60.8 ° F 53.6 ° F 77% 29.92 pul - Oeste 11.5 mph - N/A Tormenta Tormenta
5:00 AM 60 ° F 49 ° F 59% 29.93 pul - Oeste 15.0 mph - -   Precipitación desconocida
5:30 AM 60.8 ° F 50.0 ° F 68% 29.92 pul 6.2 mi Oeste 10.4 mph - N/A   Parcialmente nublado
6:00 AM 59 ° F 46 ° F 53% 29.91 pul - Oeste 10.4 mph - -  
6:00 AM 59.0 ° F 50.0 ° F 72% 29.89 pul 6.2 mi Oeste 11.5 mph - N/A   Parcialmente nublado
6:30 AM 60.8 ° F 50.0 ° F 68% 29.92 pul 6.2 mi Oeste 10.4 mph - N/A   Parcialmente nublado
7:00 AM 60 ° F 44 ° F 45% 29.95 pul 19 mi Oeste 19.6 mph - -   Parcialmente nublado
7:00 AM 60.8 ° F 48.2 ° F 63% 29.92 pul 6.2 mi Oeste 19.6 mph 31.1 mph N/A   Parcialmente nublado
7:30 AM 60.8 ° F 48.2 ° F 63% 29.95 pul 6.2 mi Oeste 20.7 mph - N/A   Parcialmente nublado
8:00 AM 57.2 ° F 48.2 ° F 72% 29.92 pul 6.2 mi ONO 17.3 mph - N/A Lluvia Lluvia débil
8:30 AM 59.0 ° F 48.2 ° F 67% 29.95 pul 6.2 mi Oeste 15.0 mph - N/A   Parcialmente nublado
9:00 AM 58 ° F 43 ° F 46% 29.96 pul - Oeste 17.3 mph - -   Precipitación desconocida
9:00 AM 59.0 ° F 46.4 ° F 63% 29.95 pul 6.2 mi Oeste 17.3 mph - N/A   Parcialmente nublado
9:30 AM 59.0 ° F 46.4 ° F 63% 29.95 pul 6.2 mi Oeste 13.8 mph - N/A   Parcialmente nublado
10:00 AM 60 ° F 43 ° F 43% 29.97 pul 19 mi Oeste 18.4 mph - -   Nubes dispersas
10:00 AM 60.8 ° F 48.2 ° F 63% 29.95 pul 6.2 mi Oeste 16.1 mph - N/A   Parcialmente nublado
10:30 AM 60.8 ° F 46.4 ° F 59% 29.95 pul 6.2 mi Oeste 19.6 mph 31.1 mph N/A   Parcialmente nublado
11:00 AM 62 ° F 46 ° F 44% 29.97 pul - Oeste 17.3 mph - -  
11:00 AM 62.6 ° F 50.0 ° F 63% 29.95 pul 6.2 mi Oeste 17.3 mph - N/A   Parcialmente nublado
11:30 AM 62.6 ° F 50.0 ° F 63% 29.95 pul 6.2 mi Oeste 18.4 mph - N/A Lluvia Lluvia débil
12:00 PM 56 ° F 48 ° F 66% 29.99 pul - Norte 10.4 mph - -   Precipitación desconocida
12:00 PM 55.4 ° F 50.0 ° F 82% 29.98 pul 6.2 mi Norte 12.7 mph - N/A Lluvia Lluvia débil
12:30 PM 51.8 ° F 44.6 ° F 76% 29.98 pul 1.9 mi Oeste 12.7 mph - N/A Lluvia Lluvias
1:00 PM 53.6 ° F 48.2 ° F 82% 29.98 pul 1.9 mi Oeste 6.9 mph - N/A Lluvia Lluvia débil
1:30 PM 55.4 ° F 50.0 ° F 82% 29.98 pul 6.2 mi ONO 5.8 mph - N/A Lluvia Lluvia débil
2:00 PM 55.4 ° F 51.8 ° F 88% 29.98 pul 6.2 mi Variable 2.3 mph - N/A Lluvia Lluvia débil
2:30 PM 57.2 ° F 51.8 ° F 82% 29.98 pul 6.2 mi Variable 2.3 mph - N/A   Nubes dispersas
3:00 PM 60 ° F 45 ° F 46% 29.97 pul - Oeste 9.2 mph - -   Precipitación desconocida
3:00 PM 60.8 ° F 50.0 ° F 68% 29.95 pul 6.2 mi Oeste 9.2 mph - N/A   Nubes dispersas
3:30 PM 62.6 ° F 46.4 ° F 55% 29.95 pul 6.2 mi ONO 8.1 mph - N/A   Nubes dispersas
4:00 PM 62.6 ° F 48.2 ° F 59% 29.98 pul 6.2 mi Oeste 10.4 mph - N/A   Nubes dispersas
4:30 PM 62.6 ° F 44.6 ° F 52% 29.98 pul 6.2 mi Oeste 9.2 mph - N/A   Parcialmente nublado
5:00 PM 60.8 ° F 44.6 ° F 55% 29.98 pul 6.2 mi Oeste 6.9 mph - N/A   Parcialmente nublado
5:30 PM 60.8 ° F 46.4 ° F 59% 29.98 pul 6.2 mi Oeste 6.9 mph - N/A   Parcialmente nublado
6:00 PM 59 ° F 42 ° F 43% 30.00 pul - Oeste 5.8 mph - -  
6:00 PM 59.0 ° F 46.4 ° F 63% 29.98 pul 6.2 mi Oeste 5.8 mph - N/A   Parcialmente nublado
6:30 PM 59.0 ° F 46.4 ° F 63% 29.98 pul 6.2 mi Oeste 8.1 mph - N/A   Parcialmente nublado
7:00 PM 56 ° F 44 ° F 53% 30.02 pul 11 mi ONO 5.8 mph - -   Nubes dispersas
7:00 PM 57.2 ° F 46.4 ° F 67% 30.01 pul 6.2 mi ONO 5.8 mph - N/A   Parcialmente nublado
7:30 PM 57.2 ° F 46.4 ° F 67% 30.01 pul 6.2 mi ONO 6.9 mph - N/A   Parcialmente nublado
8:00 PM 60 ° F 41 ° F 39% 30.03 pul - Oeste 11.5 mph - -  
8:00 PM 60.8 ° F 46.4 ° F 59% 30.01 pul 6.2 mi Oeste 10.4 mph - N/A   Parcialmente nublado
8:30 PM 60.8 ° F 46.4 ° F 59% 30.01 pul 6.2 mi Oeste 10.4 mph - N/A   Parcialmente nublado
9:00 PM 60 ° F 42 ° F 41% 30.03 pul - ONO 9.2 mph - -  
9:00 PM 60.8 ° F 46.4 ° F 59% 30.01 pul 6.2 mi ONO 9.2 mph - N/A   Parcialmente nublado
9:30 PM 60.8 ° F 48.2 ° F 63% 30.04 pul 6.2 mi Oeste 11.5 mph - N/A   Parcialmente nublado
10:00 PM 61 ° F 43 ° F 40% 30.04 pul 11 mi Oeste 12.7 mph - -   Despejado
10:00 PM 60.8 ° F 46.4 ° F 59% 30.04 pul - Oeste 13.8 mph - N/A   Despejado
10:30 PM 59.0 ° F 48.2 ° F 67% 30.04 pul - Oeste 8.1 mph - N/A   Despejado
11:00 PM 58 ° F 44 ° F 49% 30.05 pul - Oeste 9.2 mph - -  
11:00 PM 57.2 ° F 48.2 ° F 72% 30.04 pul - Oeste 9.2 mph - N/A   Despejado
11:30 PM 59.0 ° F 48.2 ° F 67% 30.04 pul 6.2 mi Oeste 6.9 mph - N/A   Parcialmente nublado